Preview of NWS' New Version of Forecast
This preview is not operational and should not be used for support decisions.

Regional Weather Roundup (RWR)

Issued by National Weather Service (NWS)

                            
000
ASCA42 TJSJ 232010
RWRPR 
PUERTO RICO/U.S. VIRGIN ISLANDS HOURLY WEATHER ROUNDUP
NATIONAL WEATHER SERVICE SAN JUAN PR
400 PM AST SAT MAR 23 2019

PRZ001>002-007>008-010-232100-
PUERTO RICO
  
CITY           SKY/WX    TMP DP  RH WIND       PRES   REMARKS
SAN JUAN LMM   MOSUNNY   84  70  61 E18       30.02F                  
AGUADILLA      CLOUDY    79  70  73 E14       30.05F                  
CEIBA          SUNNY     84  70  61 E12G18    30.04F                  
$$

VIZ001>002-232100-
U.S. VIRGIN ISLANDS
  
CITY           SKY/WX    TMP DP  RH WIND       PRES   REMARKS
CHARLOTTE AMA  MOSUNNY   82  70  65 SE14      30.02F                  
CHRISTIANSTED  MOSUNNY   84  66  54 E15       30.03F                  
$$

HOURLY WEATHER ROUNDUP FOR THE NEWS MEDIA
  
CITY           SKY/WX    TMP DP  RH WIND       PRES   REMARKS
ORLANDO        FAIR      79  37  22 E6        30.17F                  
NEW YORK       FAIR      48  20  32 W30G43    29.93R                  
NEWARK         FAIR      49  11  21 W26G36    29.94R                  
CHICAGO        FAIR      50  25  37 SW7       30.26F                  
HARTFORD       FAIR      45  27  49 NW15G26   29.69R                  
BOSTON         PTSUNNY   46  25  43 NW17G35   29.68R                  
DALLAS         CLOUDY    69  60  73 S16G22    30.01F                  
PHILADELPHIA   FAIR      51  11  20 W18G28    30.03S                  
LOS ANGELES    PTSUNNY   63  50  62 W9        30.17S                  
WASHINGTON DC  FAIR      51  18  27 NW15G25   30.15S